www.pogodaiklimat.ru

Погода и климат >> Архив погоды >> Россия >> Якутия >> Джалинда


ПОГОДА в Джалинде

  • Прогноз погоды в Джалинде
  • Монитор погоды в Джалинде
  • Климат города

АРХИВ ПОГОДЫ в Джалинде

Время (UTC), дата Ветер
(напр.,м/с)
 
Видим.   Явления Облачность Т
(С)
Тd
(С)
f
(%)
Тe
(С)
Тes
(С)
Комфортность P
(гПа)
Po
(гПа)
Тmin
(С)
Tmax
(С)
R
(мм)
R24
(мм)
S
(см)
06 17.05 С 3 50 км 8/3 600 м
[Sc Ci sp]
-7.6 -13.1 65 -13 -9 1004.9 996.9
09 17.05 СЗ 3 50 км 9/6 600 м
[Sc Ci sp]
-7.5 -13.5 62 -13 -12 1007.5 999.5
12 17.05 СЗ 3 50 км 10/10 600 м
[Sc]
-8.4 -13.7 66 -14 -14 1009.1 1001.1 -7.3
15 17.05 З 1 50 км 10/10 600 м
[Sc]
-9.2 -13.7 70 -11 -11 1009.5 1001.5
18 17.05 З 1 50 км 10/10 600 м
[Sc]
-11.4 -14.9 75 -14 -14 1010.1 1002.1
21 17.05 С 1 50 км 10/10 600 м
[Sc]
-10.1 -13.7 75 -12 -12 1010.6 1002.6
00 18.05 З 1 50 км 8/8 600 м
[Sc]
-8.2 -12.4 72 -10 -9 1010.7 1002.7 -10.1 33
03 18.05 З 1 50 км 8/8 600 м
[Sc]
-8.2 -12.4 72 -10 -8 1010.7 1002.7 -10.1 33
06 18.05 н/о -6.1 -11.4 66 1010.3 1002.4
09 18.05 СЗ 3 50 км 1/0
[Ci sp]
-3.5 -11.0 56 -8 -5 1010.6 1002.7
12 18.05 З 3 50 км 1/0
[Ci fib]
-5.7 -12.9 57 -11 -10 1012.5 1004.6 -3.5
15 18.05 СЗ 1 50 км 8/8 600 м
[Sc]
-8.6 -13.4 68 -11 -11 1013.5 1005.4
18 18.05 СЗ 1 50 км 9/9 600 м
[Sc]
-8.6 -12.4 74 -11 -11 1013.9 1005.8
21 18.05 штиль 0 50 км слабый ливневой снег 10/0
[]
-6.7 -10.4 75 -7 -7 1015.2 1007.1
00 19.05 С 1 50 км 9/9 600 м
[Sc]
-4.1 -7.9 75 -6 -6 1015.9 1007.9 -8.6 33
03 19.05 С 1 50 км 10/0
[As op]
-2.9 -7.4 71 -5 -3 1016.6 1008.6
06 19.05 С 3 50 км 10/10 600 м
[Sc]
-2.5 -8.1 65 -7 -7 1017.4 1009.4
09 19.05 СЗ 1 50 км 10/10
[Sc]
-2.6 -7.4 70 -5 -5 1019.0 1011.0
12 19.05 СЗ 1 50 км 9/9 600 м
[Sc]
-2.8 -9.0 62 -5 -4 1019.8 1011.8 -2.4
15 19.05 С 1 50 км 8/8 600 м
[Sc]
-4.8 -10.1 66 -7 -7 1020.3 1012.3
18 19.05 штиль 0 50 км 8/8 600 м
[Sc]
-7.0 -11.3 71 -8 -8 1020.8 1012.7
21 19.05 штиль 0 50 км ясно -4.7 -9.5 69 -5 -4 1018.5 1010.5
00 20.05 штиль 0 50 км ясно -3.3 -8.4 68 -4 +3 1018.2 1010.2 +27.0 33
03 20.05 штиль 0 50 км ясно -1.5 -9.3 55 -2 +10 1017.7 1009.7
06 20.05 штиль 0 50 км ясно +1.7 -9.1 45 +1 +13 опасность
простуды
1016.4 1008.6
09 20.05 штиль 0 50 км ясно +3.0 -8.9 41 +3 +9 1017.5 1009.7
12 20.05 штиль 0 50 км ясно +3.6 -8.4 41 +3 +5 1017.0 1009.3 +4.0
15 20.05 штиль 0 50 км ясно -0.5 -10.2 48 -1 -1 1016.7 1008.9
18 20.05 штиль 0 50 км ясно -2.1 -9.2 58 -3 -3 1016.3 1008.3
21 20.05 штиль 0 50 км ясно -5.1 -11.0 63 -6 -4 1017.3 1009.3
00 21.05 штиль 0 50 км 3/0
[Ci fib]
+1.3 -7.9 50 +1 +7 1016.7 1008.9 -5.1 31
03 21.05 В 1 50 км 3/0
[Ci sp]
+3.3 -7.9 44 +3 +13 опасность
простуды
1016.0 1008.2
06 21.05 В 3 50 км 3/0
[Ci sp]
+4.0 -9.1 38 +1 +8 1015.8 1008.1
09 21.05 ЮВ 3 50 км 3/0
[Ci sp]
+5.4 -9.1 34 +3 +7 1013.1 1005.4
12 21.05 В 3 50 км 3/0
[Ci sp]
+3.9 -8.8 39 +1 +2 1014.2 1006.5 +5.6
15 21.05 В 1 50 км 3/0
[Ci sp]
-0.5 -9.7 50 -2 -2 1015.3 1007.5
18 21.05 штиль 0 50 км 4/0
[Ci sp]
-5.3 -10.8 65 -6 -6 1015.0 1007.0
21 21.05 штиль 0 50 км 6/0
[Ci sp]
-5.1 -10.1 68 -6 -4 1016.7 1008.7
00 22.05 штиль 0 50 км 6/0
[Ci sp]
-2.4 -8.4 63 -3 +3 1016.5 1008.5 -5.3 30
03 22.05 СВ 1 50 км 6/0
[Ci sp]
+0.5 -6.9 58 -1 +9 1015.3 1007.5
06 22.05 СВ 1 50 км 3/0
[Ci sp]
+1.9 -6.5 54 +1 +11 опасность
простуды
1014.8 1007.0
09 22.05 СВ 3 50 км 6/0
[Ci sp]
+3.5 -5.8 51 0 +4 1014.8 1007.0
12 22.05 СВ 3 50 км 8/0
[Ci sp]
+0.2 -6.0 63 -4 -3 1014.9 1006.9 +3.7
15 22.05 штиль 0 50 км 8/0
[Ci sp]
-2.7 -5.3 82 -4 -4 1014.2 1006.2
18 22.05 штиль 0 50 км 8/0
[Ci sp]
-6.5 -8.1 88 -7 -7 1013.7 1005.7
21 22.05 штиль 0 50 км 4/0
[Ci sp]
-6.4 -8.4 86 -7 -6 1011.4 1003.5
00 23.05 штиль 0 50 км 4/0
[Ci sp]
-0.6 -6.3 65 -1 +5 1010.7 1003.0 -6.5 29
03 23.05 Ю 1 50 км 3/3 600 м
[Sc]
+2.7 -5.8 53 +2 +9 1009.9 1002.2
06 23.05 штиль 0 50 км 1/1 600 м
[Sc]
+5.7 -5.7 44 +5 +16 опасность
простуды
1007.4 999.8
09 23.05 штиль 0 50 км ясно +7.5 -6.6 36 +7 +14 1005.8 998.2
12 23.05 штиль 0 50 км 3/0
[Ci sp]
+6.7 -6.7 38 +7 +8 1003.3 995.7 +7.8
15 23.05 штиль 0 50 км 4/0
[Ci sp]
+4.2 -8.3 40 +4 +4 1000.6 993.1
18 23.05 штиль 0 50 км 6/0
[Ci sp]
+1.9 -7.0 52 +2 +2 998.4 990.7
21 23.05 ЮВ 3 50 км 10/0
[Cs]
+3.4 -5.6 52 0 +1 996.3 988.6
00 24.05 ЮВ 5 50 км 10/0
[As op]
+4.5 -4.7 51 0 +1 995.0 987.4 +1.9 28
03 24.05 ЮВ 5 50 км 10/0
[As op]
+6.3 -3.2 51 +3 +4 994.2 986.7

 

Местоположение метеостанции Джалинда (Якутия, Россия): широта 70.13 долгота 113.90 высота над уровнем моря 62 м.

В архиве по умолчанию представлена погода в Джалинде за последнюю неделю. Архивные данные за месяц целиком и за предыдущие месяцы, начиная с января 2011 года, Вы можете получить, выбрав интересующий диапазон дат из раскрывающегося списка и нажав кнопку "Ввод!".

Внимание! Время в таблицах - всемирное. Для получения местного времени необходимо прибавить поправку, которая в Джалинде равна 9 ч.

Смотрите также архив погоды в соседних городах и на ближайших метеорологических станциях:

Погода в Оленеке (Якутия, Россия) (191 км)
Погода в Саскылахе (Якутия, Россия) (205 км)
Погода в Сухане (Якутия, Россия) (241 км)
Погода в Анабаре (Якутия, Россия) (344 км)
Погода в Усть-Оленеке (Якутия, Россия) (380 км)
Погода в Полярном (Якутия, Россия) (383 км)
Погода в Ярольине (Якутия, Россия) (399 км)
Погода в Тюмяти (Якутия, Россия) (400 км)
Погода в Джарджане (Якутия, Россия) (424 км)
Погода в Шелагонцах (Якутия, Россия) (432 км)

Пояснения к столбцам:

Ветер - указаны скорость ветра в м/с - средняя за 10 мин, порывы в срок и между сроками (в фигурных скобках) и направление, откуда дует ветер: С - северный, СВ - северо-восточный, В - восточный, ЮВ - юго-восточный, Ю - южный, ЮЗ - юго-западный, З - западный, СЗ - северо-западный.
Видимость - горизонтальная дальность видимости в метрах или километрах. При видимости от 1 до 10 км при отсутствии осадков обычно наблюдается дымка, при ухудшении видимости до 1 км и менее - туман. В сухую погоду видимость может ухудшаться дымом, пылью или мглою.
Явления - указаны атмосферные явления, наблюдавшиеся в срок или в последний час перед сроком; фигурными скобками обозначены явления, наблюдавшиеся между сроками (за 1-3 часа до срока); квадратными скобками обозначены град или гололедные отложения с указанием их диаметра в мм.
Облачность - указаны через наклонную черту общая и нижняя облачность в баллах и высота нижней границы облаков в метрах; квадратными скобками обозначены формы облаков: Ci - перистые, Cs - перисто-слоистые, Cc - перисто-кучевые, Ac - высококучевые, As - высокослоистые, Sc - слоисто-кучевые, Ns - слоисто-дождевые, Cu - кучевые, Cb - кучево-дождевые. Подробнее классификацию облаков см. в Атласе облаков (PDF).
T - Температура воздуха - температура, измеренная на высоте 2 м над землей.
Td - Температура точки росы - температура, при понижении до которой содержащийся в воздухе водяной пар достигнет насыщения.
f - Относительная влажность воздуха - влажноcть воздуха, измеренная на высоте 2 м над землей.
Te - Эффективная температура - температура, которую ощущает одетый по сезону человек в тени. Характеристика душности погоды. При расчете учитывается влияние влажности воздуха и скорости ветра на теплоощущения человека.
Tes - Эффективная температура на солнце - температура, которую ощущает человек, с поправкой на солнечный нагрев. Характеристика знойности погоды. Зависит от высоты солнца над горизонтом, облачности и скорости ветра. Ночью, в пасмурную погоду, а также при ветре 12 м/с и более поправка равна нулю.
P - Атмосферное давление - приведенное к уровню моря атмосферное давление.
Po - Атмосферное давление - измеренное на уровне метеостанции атмосферное давление.
Tmin - Минимальная температура - минимум температуры воздуха на высоте 2 м над землей.
Tmax - Максимальная температура - максимум температуры воздуха на высоте 2 м над землей.
R - Количество осадков - Количество выпавших осадков за период времени, мм. При наведении курсора мыши на число - период времени, за который выпало указанное количество осадков.
R24 - Количество осадков - Количество выпавших осадков за 24 часа, мм.
S - Снежный покров - Высота снежного покрова, см. При наведении курсора мыши на число - состояние снежного покрова и степень покрытия местности в баллах.